Terug naar catalogus

TITAN 34D TRANSTAGE DEB

ActiefHEO
NORAD 23038·DEBRIS·🇺🇸 United States

Gelanceerd Sep 2, 1988 vanaf Cape Canaveral Space Force Station

Loading…

Volgende Passages (komende 24 uur)

TLE

VersSource: Space-Track

Epoch: Sep 13, 2026, 06:19 UTC

1 23038U 88077H   26256.26329544  .00005700  00000-0  40362-2 0  9991
2 23038  26.9728 335.6436 6802970 160.6914 249.0887  2.85937006 69150

Volg TITAN 34D TRANSTAGE DEB in realtime met AllMySat

Download on the App Store